Location: South Tamworth Observatory
(43.8246°N, 71.3026°W)
Time: 09:13:45
(UTC-04:00)

Amateur Radio Satellites - All Passes

Search period start: 24 May 2015 08:43
Search period end: 25 May 2015 08:43
Location: South Tamworth Observatory, 43.8246°N, 71.3026°W

Satellite Date Start Highest point End Downlink Frequencies (MHz)
Time Altitude Azimuth
COMPASS 1 24 May 08:51:53 08:54:41 18° 91° (E) 08:57:35 437.405
PCSat 24 May 08:53:23 08:56:36 16° 35° (NE) 08:59:58 145.827
Cosmos 2491 24 May 08:59:08 09:05:40 23° 280° (W) 09:11:48 435.465 / 435.565
ANTELSAT 24 May 09:00:09 09:01:55 12° 61° (ENE) 09:03:54 437.575/2403.000
AAUSAT CUBESAT 2 24 May 09:06:30 09:09:42 22° 93° (E) 09:12:59 437.432
HO-68 24 May 09:17:08 09:24:09 55° 101° (E) 09:31:09 435.675
Cosmos 2504 24 May 09:17:11 09:23:32 26° 84° (E) 09:29:50 435.465 / 435.565
DOVE 4 24 May 09:22:42 09:27:54 63° 100° (E) 09:32:49 437.250
CINEMA 3 24 May 09:24:35 09:28:52 32° 94° (E) 09:33:01 145.822/145.860
BRITE-PL 24 May 09:25:19 09:30:57 59° 288° (WNW) 09:36:22 437.365/2234.400
NANOSAT C BR1 24 May 09:31:47 09:32:11 10° 60° (ENE) 09:32:50 145.865
TIGRISAT 24 May 09:32:18 09:36:00 24° 66° (ENE) 09:39:45 435.000
QB50P2 24 May 09:36:10 09:37:44 12° 62° (ENE) 09:39:31 145.880/145.840
CANX-2 24 May 09:36:23 09:40:38 87° 279° (W) 09:44:50 2200.000
Oscar 11 24 May 09:36:53 09:40:15 23° 93° (E) 09:43:42 145.826/435.025
CUTE 1.7 + AOD 2 24 May 09:40:27 09:44:41 87° 284° (WNW) 09:48:53 437.475
PHONESAT 2.4 24 May 09:41:27 09:43:34 15° 207° (SSW) 09:45:38 2401.200-2431.200
GOMX 1 24 May 09:44:17 09:49:40 58° 288° (WNW) 09:54:47 467.674
POPSAT HIP 1 24 May 09:48:14 09:50:43 16° 64° (ENE) 09:53:23 437.405
UNISAT 6 24 May 09:50:39 09:54:56 36° 70° (ENE) 09:59:13 437.425
DUCHIFAT 1 24 May 09:52:37 09:55:17 17° 64° (ENE) 09:58:05 145.980
YUBILEINY 24 May 09:53:47 10:01:04 27° 297° (WNW) 10:08:05 435.215
DELFI C3 24 May 09:54:54 09:58:12 25° 94° (E) 10:01:33 145.870
UWE-3 24 May 09:55:13 09:58:57 26° 93° (E) 10:02:37 435.000/436.395/437.385
SEEDS 24 May 10:08:12 10:12:17 52° 287° (WNW) 10:16:20 437.485
FUNcube-1 24 May 10:13:41 10:17:34 31° 95° (E) 10:21:23 145.935
SO-50 24 May 10:15:12 10:15:39 10° 23° (NNE) 10:16:15 436.795
RS-15 24 May 10:21:32 10:32:27 84° 305° (NW) 10:43:46 29.354- 29.394
COMPASS 1 24 May 10:26:40 10:30:35 40° 288° (WNW) 10:34:27 437.405
BUGSAT 1 24 May 10:29:01 10:32:28 27° 68° (ENE) 10:36:02 437.445
QB50P1 24 May 10:30:54 10:34:54 41° 71° (ENE) 10:38:58 145.935-145.965
POLYITAN 1 24 May 10:31:04 10:35:07 42° 71° (ENE) 10:39:14 437.675
ANTELSAT 24 May 10:33:22 10:38:06 86° 257° (WSW) 10:42:48 437.575/2403.000
PCSat 24 May 10:35:37 10:41:04 73° 57° (ENE) 10:46:29 145.827
CUBEBUG 2 24 May 10:37:07 10:41:42 90° 347° (NNW) 10:46:04 437.445
AAUSAT CUBESAT 2 24 May 10:41:41 10:45:24 32° 290° (WNW) 10:49:04 437.432
ZACube-1 24 May 10:52:33 10:56:58 85° 106° (ESE) 11:01:14 437.345
ESTCUBE 1 24 May 10:58:54 11:01:21 15° 89° (E) 11:04:01 437.505/2401.250
UKube-1 24 May 11:00:58 11:05:10 45° 99° (E) 11:09:21 .
DOVE 4 24 May 11:01:31 11:05:08 19° 298° (WNW) 11:08:30 437.250
CINEMA 3 24 May 11:01:49 11:06:00 29° 293° (WNW) 11:09:58 145.822/145.860
NANOSAT C BR1 24 May 11:03:08 11:07:24 89° 256° (WSW) 11:11:44 145.865
DX 1 24 May 11:05:00 11:09:20 54° 100° (E) 11:13:39 434.975-435.025
HO-68 24 May 11:05:24 11:11:36 32° 299° (WNW) 11:17:41 435.675
VELOX 1 24 May 11:07:17 11:11:11 29° 95° (E) 11:15:08 145.980
BRITE-PL 24 May 11:08:00 11:08:23 10° 305° (NW) 11:08:26 437.365/2234.400
Cosmos 2504 24 May 11:08:01 11:16:26 68° 281° (WNW) 11:24:16 435.465 / 435.565
TIGRISAT 24 May 11:08:06 11:12:33 40° 263° (W) 11:16:57 435.000
QB50P2 24 May 11:08:49 11:13:06 75° 258° (WSW) 11:17:25 145.880/145.840
HUMSAT D 24 May 11:12:10 11:16:20 64° 100° (E) 11:20:26 437.325/437.525
Oscar 11 24 May 11:12:37 11:16:32 34° 290° (WNW) 11:20:24 145.826/435.025
CUBEBUG 1 24 May 11:15:03 11:18:09 19° 91° (E) 11:21:22 437.445
50 SAT 24 May 11:16:40 11:20:20 39° 97° (E) 11:23:59 437.505
POPSAT HIP 1 24 May 11:22:00 11:26:12 55° 260° (W) 11:30:27 437.405
DUCHIFAT 1 24 May 11:26:35 11:30:45 50° 261° (W) 11:34:56 145.980
UNISAT 6 24 May 11:27:50 11:31:47 25° 267° (W) 11:35:38 437.425
DELFI C3 24 May 11:29:52 11:33:19 27° 291° (WNW) 11:36:42 145.870
UWE-3 24 May 11:31:33 11:35:30 31° 292° (WNW) 11:39:17 435.000/436.395/437.385
CUSAT 1 24 May 11:31:58 11:33:11 11° 74° (ENE) 11:35:04 437.405
AISAT 24 May 11:37:25 11:41:53 63° 101° (E) 11:46:20 437.250
FUNcube-1 24 May 11:50:10 11:53:48 25° 292° (WNW) 11:57:18 145.935
SO-50 24 May 11:53:08 11:57:42 36° 45° (NE) 12:02:16 436.795
BUGSAT 1 24 May 12:04:18 12:07:54 27° 265° (W) 12:11:29 437.445
SPROUT 24 May 12:05:53 12:08:51 18° 91° (E) 12:11:57 437.525
QB50P1 24 May 12:07:54 12:11:00 19° 269° (W) 12:13:59 145.935-145.965
POLYITAN 1 24 May 12:08:10 12:11:16 19° 269° (W) 12:14:15 437.675
Oscar 19 24 May 12:12:35 12:16:30 23° 64° (ENE) 12:20:33 437.125/150
CUBEBUG 2 24 May 12:16:30 12:17:41 11° 300° (WNW) 12:18:38 437.445
DANDE 24 May 12:18:13 12:22:59 20° 79° (E) 12:28:38 436.750
PCSat 24 May 12:20:28 12:23:56 17° 254° (WSW) 12:27:11 145.827
GONETS M04 24 May 12:24:50 12:31:41 27° 82° (E) 12:38:51
ZACube-1 24 May 12:31:28 12:32:41 11° 300° (WNW) 12:33:39 437.345
ESTCUBE 1 24 May 12:34:13 12:38:41 58° 287° (WNW) 12:43:07 437.505/2401.250
RS-15 24 May 12:37:01 12:46:47 34° 334° (NNW) 12:56:46 29.354- 29.394
UKube-1 24 May 12:37:54 12:41:01 19° 295° (WNW) 12:44:00 .
TISAT 1 24 May 12:40:35 12:44:23 30° 96° (E) 12:48:11 437.305
Gurwin Techsat 1B 24 May 12:42:01 12:44:10 13° 58° (ENE) 12:46:35 435.225
DX 1 24 May 12:42:21 12:45:12 17° 297° (WNW) 12:47:54 434.975-435.025
VELOX 1 24 May 12:43:48 12:47:43 29° 292° (WNW) 12:51:33 145.980
HUMSAT D 24 May 12:49:36 12:51:36 13° 297° (WNW) 12:53:26 437.325/437.525
CUBEBUG 1 24 May 12:50:31 12:54:46 44° 289° (WNW) 12:58:58 437.445
50 SAT 24 May 12:52:10 12:54:48 17° 294° (WNW) 12:57:18 437.505
CUSAT 1 24 May 13:07:16 13:14:10 57° 93° (E) 13:22:13 437.405
Cosmos 2504 24 May 13:07:21 13:11:32 14° 304° (NW) 13:15:08 435.465 / 435.565
AISAT 24 May 13:15:22 13:18:01 15° 298° (WNW) 13:20:32 437.250
SO-50 24 May 13:33:44 13:38:17 36° 244° (WSW) 13:42:43 436.795
SPROUT 24 May 13:41:03 13:45:11 43° 289° (WNW) 13:49:16 437.525
ITUPSAT 1 24 May 13:42:46 13:46:33 24° 93° (E) 13:50:26 437.325
Oscar 19 24 May 13:50:29 13:55:32 51° 260° (W) 14:00:38 437.125/150
BEESAT 24 May 13:52:10 13:56:19 29° 95° (E) 14:00:30 436.000
Cosmos 2499 24 May 13:56:43 14:01:20 17° 81° (E) 14:06:10 435.465 / 435.565
ITAMSAT 1 24 May 13:57:50 14:02:54 60° 72° (ENE) 14:08:01 435.822/435.867
DANDE 24 May 13:58:08 14:05:02 87° 280° (W) 14:13:29 436.750
SWISSCUBE 24 May 13:59:59 14:04:26 38° 97° (E) 14:08:53 437.505
TISAT 1 24 May 14:16:29 14:20:03 25° 292° (WNW) 14:23:32 437.305
Gurwin Techsat 1B 24 May 14:18:07 14:23:25 83° 76° (ENE) 14:28:46 435.225
GONETS M04 24 May 14:19:04 14:27:53 69° 282° (WNW) 14:36:44
AO-7 24 May 14:28:20 14:35:27 34° 57° (ENE) 14:42:44 29.400- 29.500
HORYU 2 24 May 14:35:57 14:39:23 22° 66° (ENE) 14:42:53 437.375
JAS-2 24 May 14:41:07 14:46:51 32° 67° (ENE) 14:52:08 435.910
KKS-1 24 May 14:44:15 14:47:19 18° 91° (E) 14:50:30 437.445
CUSAT 1 24 May 14:50:40 14:57:20 35° 295° (WNW) 15:04:42 437.405
RS-15 24 May 14:54:43 15:03:42 26° 8° (N) 15:13:04 29.354- 29.394
O/OREOS (USA 219) 24 May 15:07:41 15:09:21 12° 99° (E) 15:11:15 437.305
ITUPSAT 1 24 May 15:20:08 15:24:37 40° 290° (WNW) 15:29:03 437.325
BEESAT 24 May 15:29:55 15:34:11 32° 292° (WNW) 15:38:21 436.000
SWISSCUBE 24 May 15:38:11 15:42:08 26° 294° (WNW) 15:45:59 437.505
ITAMSAT 1 24 May 15:39:19 15:42:53 18° 270° (W) 15:46:17 435.822/435.867
DANDE 24 May 15:44:16 15:49:49 21° 305° (NW) 15:55:41 436.750
Cosmos 2499 24 May 15:45:25 15:53:40 89° 98° (E) 16:01:19 435.465 / 435.565
STARS 24 May 15:54:41 15:59:07 62° 101° (E) 16:03:29 437.465
Gurwin Techsat 1B 24 May 16:01:38 16:04:11 13° 274° (W) 16:06:26 435.225
HORYU 2 24 May 16:11:35 16:15:49 39° 262° (W) 16:20:02 437.375
AO-7 24 May 16:19:41 16:27:52 62° 257° (WSW) 16:36:07 29.400- 29.500
KKS-1 24 May 16:19:55 16:24:14 46° 289° (WNW) 16:28:30 437.445
GONETS M04 24 May 16:21:48 16:26:53 15° 307° (NW) 16:31:28
JAS-2 24 May 16:25:17 16:31:52 46° 261° (W) 16:37:41 435.910
O/OREOS (USA 219) 24 May 16:43:44 16:48:15 70° 295° (WNW) 16:52:46 437.305
RS-15 24 May 17:08:47 17:19:47 49° 40° (NE) 17:31:21 29.354- 29.394
MOZHAYETS 4 24 May 17:28:15 17:32:51 80° 102° (ESE) 17:37:25
CUTE-I 24 May 17:29:14 17:34:04 38° 68° (ENE) 17:39:00 437.470
STARS 24 May 17:32:31 17:35:06 15° 298° (WNW) 17:37:32 437.465
Cosmos 2499 24 May 17:42:21 17:47:56 19° 299° (WNW) 17:52:57 435.465 / 435.565
BEESAT 2 24 May 17:45:12 17:45:45 10° 109° (ESE) 17:46:31 435.950
Cubesat XI-IV 24 May 17:48:34 17:53:45 57° 72° (ENE) 17:58:59 437.490
YUBILEINY 24 May 18:03:21 18:11:15 38° 69° (ENE) 18:19:14 435.215
HO-68 24 May 18:06:36 18:07:30 10° 46° (NE) 18:08:50 435.675
Cosmos 2491 24 May 18:10:47 18:16:03 19° 78° (ENE) 18:21:47 435.465 / 435.565
AO-7 24 May 18:20:43 18:22:42 11° 279° (W) 18:23:56 29.400- 29.500
BEESAT 3 24 May 18:34:24 18:38:15 42° 118° (ESE) 18:42:10 437.485
AIST 2 24 May 18:53:08 18:55:50 17° 112° (ESE) 18:58:41 435.215
DOVE 4 24 May 18:55:46 18:57:00 11° 57° (ENE) 18:58:32 437.250
CUBESAT XI-V 24 May 18:59:11 19:03:51 59° 101° (E) 19:08:29 437.345
BRITE-PL 24 May 18:59:45 19:03:52 26° 65° (ENE) 19:08:19 437.365/2234.400
MOZHAYETS 4 24 May 19:07:32 19:09:31 12° 299° (WNW) 19:11:16
CUTE-I 24 May 19:09:38 19:14:16 29° 266° (W) 19:18:51 437.470
STRAND 1 24 May 19:11:51 19:16:27 33° 96° (E) 19:21:05 437.568
GOMX 1 24 May 19:16:18 19:20:21 24° 64° (ENE) 19:24:40 467.674
BEESAT 2 24 May 19:19:09 19:23:16 82° 304° (NW) 19:27:27 435.950
RS-15 24 May 19:21:24 19:32:48 62° 244° (WSW) 19:44:34 29.354- 29.394
SEEDS 24 May 19:28:05 19:30:01 13° 63° (ENE) 19:32:08 437.485
Cubesat XI-IV 24 May 19:30:25 19:34:18 20° 270° (W) 19:38:02 437.490
COMPASS 1 24 May 19:45:02 19:47:34 16° 65° (ENE) 19:50:12 437.405
HO-68 24 May 19:46:55 19:53:41 48° 66° (ENE) 20:00:32 435.675
PRISM 24 May 19:56:18 20:00:27 75° 284° (WNW) 20:04:35 437.425
AAUSAT CUBESAT 2 24 May 19:59:03 20:01:58 19° 66° (ENE) 20:05:00 437.432
YUBILEINY 24 May 20:00:04 20:08:23 51° 270° (W) 20:16:36 435.215
Cosmos 2491 24 May 20:02:57 20:11:46 87° 96° (E) 20:20:40 435.465 / 435.565
CUBEBUG 2 24 May 20:03:06 20:04:40 12° 60° (ENE) 20:06:27 437.445
BEESAT 3 24 May 20:13:02 20:16:25 23° 317° (NW) 20:19:45 437.485
M-CUBED/EXP-1 PRIME 24 May 20:24:08 20:27:29 87° 106° (ESE) 20:30:47 437.505
CINEMA 3 24 May 20:26:59 20:31:29 36° 69° (ENE) 20:36:07 145.822/145.860
DOVE 4 24 May 20:28:48 20:33:50 72° 75° (ENE) 20:39:09 437.250
AIST 2 24 May 20:29:51 20:34:03 54° 308° (NW) 20:38:17 435.215
CANX-2 24 May 20:30:18 20:34:34 79° 76° (ENE) 20:38:51 2200.000
Oscar 11 24 May 20:33:13 20:36:31 22° 67° (ENE) 20:39:54 145.826/435.025
CUTE 1.7 + AOD 2 24 May 20:34:16 20:38:32 78° 76° (ENE) 20:42:49 437.475
AUBIESAT-1 24 May 20:34:53 20:38:13 79° 291° (WNW) 20:41:31 437.475
BRITE-PL 24 May 20:37:17 20:42:06 45° 264° (W) 20:47:17 437.365/2234.400
CUBESAT XI-V 24 May 20:37:49 20:40:52 17° 296° (WNW) 20:43:46 437.345
DELFI C3 24 May 20:44:06 20:46:57 19° 67° (ENE) 20:49:55 145.870
AIST 1 24 May 20:47:41 20:51:45 48° 94° (E) 20:55:54
STRAND 1 24 May 20:51:02 20:55:38 33° 293° (WNW) 21:00:10 437.568
GOMX 1 24 May 20:53:13 20:58:08 48° 263° (W) 21:03:21 467.674
UWE-3 24 May 20:53:22 20:57:18 28° 68° (ENE) 21:01:18 435.000/436.395/437.385
Cosmos 2504 24 May 20:59:13 21:06:07 45° 73° (ENE) 21:12:59 435.465 / 435.565
BEESAT 2 24 May 20:59:53 21:02:04 14° 325° (NW) 21:04:10 435.950
SEEDS 24 May 21:01:09 21:05:22 64° 259° (WSW) 21:09:35 437.485
FUNcube-1 24 May 21:10:26 21:14:28 31° 69° (ENE) 21:18:32 145.935
COMPASS 1 24 May 21:18:49 21:22:53 50° 261° (W) 21:26:59 437.405
AAUSAT CUBESAT 2 24 May 21:33:23 21:37:20 40° 263° (W) 21:41:17 437.432
HO-68 24 May 21:35:04 21:41:37 36° 264° (W) 21:48:06 435.675
CUBEBUG 2 24 May 21:35:54 21:40:41 88° 75° (ENE) 21:45:29 437.445
RS-15 24 May 21:38:00 21:43:16 13° 263° (W) 21:47:28 29.354- 29.394
ZACube-1 24 May 21:49:10 21:53:47 79° 75° (ENE) 21:58:24 437.345
UKube-1 24 May 21:56:59 22:01:06 46° 71° (ENE) 22:05:17 .
ESTCUBE 1 24 May 22:00:06 22:02:56 17° 64° (ENE) 22:05:55 437.505/2401.250
DX 1 24 May 22:01:44 22:05:59 56° 73° (ENE) 22:10:17 434.975-435.025
50 SAT 24 May 22:02:43 22:06:09 28° 70° (ENE) 22:09:38 437.505
Cosmos 2491 24 May 22:03:23 22:10:03 22° 301° (WNW) 22:16:23 435.465 / 435.565
CINEMA 3 24 May 22:04:25 22:08:44 29° 267° (W) 22:13:04 145.822/145.860
HUMSAT D 24 May 22:04:51 22:09:04 54° 73° (ENE) 22:13:18 437.325/437.525
VELOX 1 24 May 22:06:14 22:10:07 31° 68° (ENE) 22:14:04 145.980
CUSAT 1 24 May 22:06:54 22:07:35 10° 45° (NE) 22:08:42 437.405
Oscar 11 24 May 22:08:28 22:12:31 37° 263° (W) 22:16:33 145.826/435.025
DOVE 4 24 May 22:09:11 22:12:15 15° 274° (W) 22:15:09 437.250
AIST 2 24 May 22:12:21 22:13:37 11° 329° (NNW) 22:14:46 435.215
CUBEBUG 1 24 May 22:12:52 22:15:55 19° 65° (ENE) 22:19:06 437.445
DELFI C3 24 May 22:18:07 22:21:52 36° 263° (W) 22:25:36 145.870
ANTELSAT 24 May 22:25:23 22:28:17 18° 90° (E) 22:31:16 437.575/2403.000
AIST 1 24 May 22:27:07 22:29:47 16° 293° (WNW) 22:32:18
UWE-3 24 May 22:29:28 22:33:44 34° 264° (W) 22:37:59 435.000/436.395/437.385
GONETS M04 24 May 22:33:13 22:37:23 14° 52° (NE) 22:42:04
AISAT 24 May 22:36:18 22:40:43 66° 73° (ENE) 22:45:11 437.250
FUNcube-1 24 May 22:46:47 22:50:47 28° 266° (W) 22:54:43 145.935
NANOSAT C BR1 24 May 22:48:22 22:50:28 14° 89° (E) 22:52:45 145.865
Cosmos 2504 24 May 22:52:59 22:59:20 33° 273° (W) 23:05:29 435.465 / 435.565
QB50P2 24 May 22:54:01 22:56:40 16° 90° (E) 22:59:28 145.880/145.840
DANDE 24 May 22:57:16 23:03:01 21° 55° (NE) 23:08:23 436.750
TIGRISAT 24 May 22:58:35 23:02:42 37° 97° (E) 23:06:44 435.000
SPROUT 24 May 23:01:46 23:04:38 18° 65° (ENE) 23:07:38 437.525
POPSAT HIP 1 24 May 23:06:28 23:09:45 22° 93° (E) 23:13:07 437.405
DUCHIFAT 1 24 May 23:10:27 23:13:51 23° 93° (E) 23:17:18 145.980
CUBEBUG 2 24 May 23:17:00 23:18:07 11° 275° (W) 23:18:56 437.445
UNISAT 6 24 May 23:17:43 23:22:08 63° 101° (E) 23:26:24 437.425
ISS 24 May 23:25:42 23:26:38 11° 131° (SE) 23:27:40 145.825
ZACube-1 24 May 23:29:14 23:30:46 11° 274° (W) 23:32:02 437.345
TISAT 1 24 May 23:34:08 23:37:44 28° 68° (ENE) 23:41:26 437.305
UKube-1 24 May 23:34:36 23:37:32 17° 269° (W) 23:40:21 .
ESTCUBE 1 24 May 23:35:04 23:39:27 53° 260° (W) 23:43:52 437.505/2401.250
50 SAT 24 May 23:37:35 23:40:53 24° 266° (W) 23:44:08 437.505
DX 1 24 May 23:40:09 23:42:39 14° 271° (W) 23:44:59 434.975-435.025
HUMSAT D 24 May 23:42:38 23:45:11 15° 271° (W) 23:47:34 437.325/437.525
VELOX 1 24 May 23:42:55 23:46:42 26° 266° (W) 23:50:27 145.980
BUGSAT 1 24 May 23:44:35 23:48:34 37° 97° (E) 23:52:33 437.445
CUSAT 1 24 May 23:45:28 23:52:51 48° 70° (ENE) 23:58:48 437.405
CUBEBUG 1 24 May 23:47:50 23:52:00 44° 262° (W) 23:56:12 437.445
QB50P1 24 May 23:50:08 23:54:25 65° 101° (E) 23:58:39 145.935-145.965
POLYITAN 1 24 May 23:50:43 23:55:01 67° 101° (ESE) 23:59:15 437.675
ANTELSAT 25 May 00:01:08 00:05:23 45° 289° (WNW) 00:09:30 437.575/2403.000
AISAT 25 May 00:15:46 00:17:50 13° 272° (W) 00:19:42 437.250
NANOSAT C BR1 25 May 00:22:31 00:26:44 57° 287° (WNW) 00:30:54 145.865
GONETS M04 25 May 00:27:43 00:36:30 66° 77° (ENE) 00:45:11
QB50P2 25 May 00:28:44 00:32:53 47° 288° (WNW) 00:36:58 145.880/145.840
TIGRISAT 25 May 00:35:48 00:39:16 22° 294° (WNW) 00:42:33 435.000
SPROUT 25 May 00:36:13 00:40:24 47° 261° (W) 00:44:36 437.525
DANDE 25 May 00:39:29 00:47:47 89° 81° (E) 00:54:25 436.750
POPSAT HIP 1 25 May 00:41:48 00:45:46 35° 290° (WNW) 00:49:39 437.405
DUCHIFAT 1 25 May 00:45:52 00:49:44 33° 290° (WNW) 00:53:32 145.980
ITUPSAT 1 25 May 00:50:51 00:55:02 32° 68° (ENE) 00:59:17 437.325
UNISAT 6 25 May 00:55:58 00:58:25 14° 298° (WNW) 01:00:42 437.425
ISS 25 May 00:59:21 01:02:36 84° 149° (SSE) 01:05:52 145.825
BEESAT 25 May 00:59:53 01:04:17 40° 69° (ENE) 01:08:44 436.000
SWISSCUBE 25 May 01:07:46 01:12:21 51° 71° (ENE) 01:16:59 437.505
TISAT 1 25 May 01:09:49 01:13:30 27° 265° (W) 01:17:08 437.305
O/OREOS (USA 219) 25 May 01:13:27 01:17:25 31° 57° (ENE) 01:21:24 437.305
PCSat 25 May 01:18:31 01:23:43 51° 115° (ESE) 01:28:59 145.827
BUGSAT 1 25 May 01:20:32 01:23:50 21° 294° (WNW) 01:27:02 437.445
QB50P1 25 May 01:27:35 01:29:49 14° 297° (WNW) 01:31:51 145.935-145.965
POLYITAN 1 25 May 01:28:17 01:30:25 13° 298° (WNW) 01:32:23 437.675
CUSAT 1 25 May 01:28:40 01:35:15 33° 274° (W) 01:40:34 437.405
Cosmos 2499 25 May 01:35:27 01:41:35 31° 68° (ENE) 01:47:49 435.465 / 435.565
KKS-1 25 May 01:43:51 01:47:09 21° 65° (ENE) 01:50:34 437.445
BEESAT 2 25 May 02:00:20 02:02:39 15° 36° (NE) 02:05:03 435.950
Oscar 19 25 May 02:00:34 02:05:36 51° 99° (E) 02:10:36 437.125/150
ITAMSAT 1 25 May 02:10:13 02:13:48 19° 90° (E) 02:17:33 435.822/435.867
DANDE 25 May 02:24:28 02:29:46 19° 281° (WNW) 02:34:11 436.750
GONETS M04 25 May 02:25:32 02:32:45 29° 277° (W) 02:39:40
VERMONT LUNAR 25 May 02:28:32 02:30:09 13° 153° (SSE) 02:31:49 437.305
ITUPSAT 1 25 May 02:28:46 02:32:56 29° 265° (W) 02:37:04 437.325
Gurwin Techsat 1B 25 May 02:33:21 02:37:57 30° 94° (E) 02:42:36 435.225
ISS 25 May 02:36:31 02:39:19 25° 346° (NNW) 02:42:07 145.825
BEESAT 25 May 02:38:26 02:42:18 24° 267° (W) 02:46:04 436.000
SWISSCUBE 25 May 02:47:13 02:50:34 18° 269° (W) 02:53:46 437.505
BEESAT 3 25 May 02:51:45 02:55:39 41° 49° (NE) 02:59:30 437.485
STARS 25 May 02:52:38 02:57:02 65° 73° (ENE) 03:01:27 437.465
O/OREOS (USA 219) 25 May 02:52:56 02:56:47 28° 255° (WSW) 03:00:34 437.305
MOZHAYETS 4 25 May 02:58:25 02:59:18 11° 60° (ENE) 03:00:26
PCSat 25 May 03:02:43 03:07:26 29° 315° (NW) 03:12:05 145.827
AIST 2 25 May 03:12:27 03:15:41 21° 41° (NE) 03:18:56 435.215
KKS-1 25 May 03:19:16 03:23:32 42° 262° (W) 03:27:49 437.445
Cosmos 2499 25 May 03:28:16 03:35:01 48° 269° (W) 03:41:44 435.465 / 435.565
JAS-2 25 May 03:33:55 03:37:23 18° 90° (E) 03:41:04 435.910
BEESAT 2 25 May 03:37:13 03:41:22 88° 243° (WSW) 03:45:26 435.950
Oscar 19 25 May 03:40:39 03:44:39 23° 296° (WNW) 03:48:32 437.125/150
ITAMSAT 1 25 May 03:48:37 03:53:44 57° 289° (WNW) 03:58:51 435.822/435.867
SO-50 25 May 03:48:43 03:53:17 56° 120° (ESE) 03:58:04 436.795
HORYU 2 25 May 04:01:22 04:05:24 34° 96° (E) 04:09:27 437.375
VERMONT LUNAR 25 May 04:03:53 04:06:51 35° 168° (SSE) 04:09:50 437.305
PHONESAT 2.4 25 May 04:05:32 04:08:07 20° 156° (SSE) 04:10:44 2401.200-2431.200
Gurwin Techsat 1B 25 May 04:13:07 04:18:02 38° 292° (WNW) 04:22:53 435.225
ISS 25 May 04:13:53 04:16:28 21° 6° (N) 04:19:03 145.825
AO-7 25 May 04:19:38 04:27:28 44° 98° (E) 04:35:23 29.400- 29.500
BEESAT 3 25 May 04:30:17 04:33:24 21° 247° (WSW) 04:36:24 437.485
MOZHAYETS 4 25 May 04:31:17 04:35:53 87° 76° (ENE) 04:40:30
STARS 25 May 04:31:49 04:33:59 13° 272° (W) 04:35:57 437.465
AIST 2 25 May 04:50:27 04:54:35 53° 240° (WSW) 04:58:38 435.215
JAS-2 25 May 05:17:57 05:23:02 54° 289° (WNW) 05:28:07 435.910
SO-50 25 May 05:30:14 05:34:11 25° 320° (NW) 05:38:12 436.795
HORYU 2 25 May 05:38:17 05:41:55 25° 294° (WNW) 05:45:28 437.375
M-CUBED/EXP-1 PRIME 25 May 05:40:25 05:42:49 15° 61° (ENE) 05:45:15 437.505
VERMONT LUNAR 25 May 05:40:43 05:43:48 44° 184° (S) 05:46:52 437.305
PHONESAT 2.4 25 May 05:42:30 05:45:49 44° 172° (S) 05:49:08 2401.200-2431.200
CUTE-I 25 May 05:46:29 05:48:50 13° 87° (E) 05:51:29 437.470
ISS 25 May 05:50:14 05:53:25 48° 25° (NNE) 05:56:36 145.825
AUBIESAT-1 25 May 05:50:30 05:53:06 17° 61° (ENE) 05:55:43 437.475
CUBESAT XI-V 25 May 06:03:46 06:08:19 66° 74° (ENE) 06:12:55 437.345
Cubesat XI-IV 25 May 06:05:15 06:09:06 20° 91° (E) 06:13:07 437.490
Cosmos 2491 25 May 06:11:53 06:20:20 48° 72° (ENE) 06:28:47 435.465 / 435.565
AO-7 25 May 06:12:29 06:20:23 47° 298° (WNW) 06:28:12 29.400- 29.500
STRAND 1 25 May 06:28:57 06:33:52 54° 72° (ENE) 06:38:53 437.568
PRISM 25 May 06:47:28 06:51:33 86° 252° (WSW) 06:55:41 437.425
AIST 1 25 May 06:54:24 06:56:52 15° 67° (ENE) 06:59:30
YUBILEINY 25 May 07:06:07 07:14:01 41° 87° (E) 07:22:03 435.215
M-CUBED/EXP-1 PRIME 25 May 07:13:10 07:17:24 55° 254° (WSW) 07:21:18 437.505
VERMONT LUNAR 25 May 07:18:04 07:20:38 22° 201° (SSW) 07:23:11 437.305
PHONESAT 2.4 25 May 07:20:22 07:23:41 42° 189° (S) 07:26:59 2401.200-2431.200
AUBIESAT-1 25 May 07:23:32 07:27:39 48° 255° (WSW) 07:31:29 437.475
CUTE-I 25 May 07:24:18 07:29:41 83° 287° (WNW) 07:35:05 437.470
ISS 25 May 07:26:56 07:29:42 25° 223° (SW) 07:32:25 145.825
RS-15 25 May 07:39:17 07:45:44 19° 100° (E) 07:52:57 29.354- 29.394
CUBESAT XI-V 25 May 07:44:01 07:46:20 13° 273° (W) 07:48:25 437.345
Cubesat XI-IV 25 May 07:44:22 07:49:37 56° 289° (WNW) 07:54:51 437.490
AO-7 25 May 08:08:08 08:11:16 12° 320° (NW) 08:14:01 29.400- 29.500
Cosmos 2491 25 May 08:09:02 08:17:08 41° 273° (W) 08:25:03 435.465 / 435.565
STRAND 1 25 May 08:09:48 08:13:29 19° 269° (W) 08:17:02 437.568
CANX-2 25 May 08:16:17 08:17:53 12° 88° (E) 08:19:41 2200.000
CUTE 1.7 + AOD 2 25 May 08:20:11 08:21:46 12° 88° (E) 08:23:33 437.475
PCSat 25 May 08:23:09 08:25:32 13° 31° (NNE) 08:28:06 145.827
DOVE 4 25 May 08:27:58 08:31:35 20° 88° (E) 08:35:13 437.250
AIST 1 25 May 08:30:40 08:34:56 53° 266° (W) 08:39:13
